KD5NDU-15 Weather Reports


time (UTC)temp
F
wind
direction
speed
knots
gust
knots
rain 1hr
in
rain 24hr
in
rain mn
in
humidity
%
barometer
mb
20260906150129 90 135 1.7 5.2 0.00 0.00 0.00 73 1013.7
20260906145629 90 209 1.7 5.2 0.00 0.00 0.00 73 1013.6
20260906145129 90 184 1.7 3.5 0.00 0.00 0.00 74 1013.6
20260906144629 89 179 1.7 7.0 0.00 0.00 0.00 73 1013.5
20260906144129 89 214 1.7 5.2 0.00 0.00 0.00 75 1013.6
20260906143629 89 63 2.6 5.2 0.00 0.00 0.00 74 1013.7
20260906143129 89 76 1.7 4.3 0.00 0.00 0.00 74 1013.6
20260906142629 89 148 0.9 4.3 0.00 0.00 0.00 75 1013.6
20260906142129 88 1 0.9 3.5 0.00 0.00 0.00 76 1013.5
20260906141629 88 94 1.7 3.5 0.00 0.00 0.00 78 1013.6
20260906141129 87 30 1.7 3.5 0.00 0.00 0.00 78 1013.6
20260906140629 87 140 1.7 4.3 0.00 0.00 0.00 78 1013.5
20260906140129 87 44 0.9 5.2 0.00 0.00 0.00 78 1013.5
20260906135629 86 243 0.9 3.5 0.00 0.00 0.00 79 1013.5
20260906135129 86 155 0.9 2.6 0.00 0.00 0.00 81 1013.6
20260906134629 85 211 0.9 3.5 0.00 0.00 0.00 82 1013.7
20260906134129 85 155 0.9 3.5 0.00 0.00 0.00 82 1013.7
20260906133629 84 200 0.9 2.6 0.00 0.00 0.00 84 1013.7
20260906133129 83 147 0.9 1.7 0.00 0.00 0.00 85 1013.7
20260906132629 82 8 0.9 2.6 0.00 0.00 0.00 87 1013.8
20260906132129 81 75 0.9 2.6 0.00 0.00 0.00 89 1013.9
20260906131629 79 207 0.9 0.9 0.00 0.00 0.00 91 1013.9
20260906131129 78 293 0.9 2.6 0.00 0.00 0.00 92 1013.8
20260906130629 77 245 0.0 0.0 0.00 0.00 0.00 93 1013.9
20260906130129 77 245 0.0 0.0 0.00 0.00 0.00 94 1013.6
20260906125629 76 245 0.9 1.7 0.00 0.00 0.00 94 1013.6
20260906125129 76 245 0.0 1.7 0.00 0.00 0.00 94 1013.6
20260906124629 75 245 0.0 0.0 0.00 0.00 0.00 94 1013.5
20260906124129 75 245 0.0 0.0 0.00 0.00 0.00 94 1013.3
20260906123629 74 245 0.9 1.7 0.00 0.00 0.00 94 1013.2
20260906123129 74 245 0.9 2.6 0.00 0.00 0.00 94 1013.3
20260906122629 75 248 0.0 1.7 0.00 0.00 0.00 94 1013.2
20260906122129 74 248 0.0 0.0 0.00 0.00 0.00 94 1013.1
20260906121629 74 248 0.0 0.0 0.00 0.00 0.00 94 1013.1
20260906121129 74 248 0.0 0.0 0.00 0.00 0.00 94 1012.9
20260906120629 74 248 0.0 0.0 0.00 0.00 0.00 94 1012.9
20260906120129 75 248 0.0 0.0 0.00 0.00 0.00 94 1012.8
20260906115629 75 248 0.0 0.0 0.00 0.00 0.00 94 1012.7
20260906115129 75 248 0.0 0.0 0.00 0.00 0.00 94 1012.7
20260906114629 75 248 0.0 0.0 0.00 0.00 0.00 94 1012.8
20260906114129 75 248 0.0 0.0 0.00 0.00 0.00 94 1012.7
20260906113629 75 248 0.0 0.0 0.00 0.00 0.00 94 1012.7
20260906113129 74 248 0.0 0.0 0.00 0.00 0.00 94 1012.6
20260906112629 74 248 0.0 0.0 0.00 0.00 0.00 94 1012.6
20260906112129 74 248 0.0 0.0 0.00 0.00 0.00 94 1012.4
20260906111629 74 248 0.0 0.0 0.00 0.00 0.00 94 1012.5
20260906111129 74 248 0.0 0.9 0.00 0.00 0.00 94 1012.4
20260906110629 74 248 0.0 1.7 0.00 0.00 0.00 94 1012.4
20260906110129 74 248 0.0 0.9 0.00 0.00 0.00 94 1012.2
20260906105629 74 247 0.0 0.9 0.00 0.00 0.00 95 1012.1
20260906105129 74 243 0.0 0.0 0.00 0.00 0.00 94 1012.2
20260906104629 74 243 0.0 0.9 0.00 0.00 0.00 94 1012.2
20260906104129 74 243 0.0 0.9 0.00 0.00 0.00 94 1012.1
20260906103629 74 243 0.0 1.7 0.00 0.00 0.00 94 1012.2
20260906103129 74 242 0.0 0.0 0.00 0.00 0.00 94 1012.3
20260906102629 74 242 0.0 0.0 0.00 0.00 0.00 94 1012.3
20260906102129 74 242 0.0 0.0 0.00 0.00 0.00 94 1012.3
20260906101629 74 242 0.0 0.0 0.00 0.00 0.00 94 1012.3
20260906101129 74 242 0.0 0.0 0.00 0.00 0.00 94 1012.4
20260906100629 74 242 0.0 0.0 0.00 0.00 0.00 94 1012.5
20260906100129 74 242 0.0 0.0 0.00 0.00 0.00 94 1012.5
20260906095630 74 242 0.0 0.0 0.00 0.00 0.00 94 1012.5
20260906095129 74 242 0.0 0.0 0.00 0.00 0.00 94 1012.4
20260906094630 74 242 0.9 1.7 0.00 0.00 0.00 94 1012.5
20260906094130 74 242 1.7 2.6 0.00 0.00 0.00 93 1012.4
20260906093630 75 248 0.9 1.7 0.00 0.00 0.00 92 1012.2
20260906093130 76 248 0.0 0.9 0.00 0.00 0.00 92 1012.1
20260906092630 76 248 0.0 0.0 0.00 0.00 0.00 92 1012.1
20260906092130 76 248 0.0 0.0 0.00 0.00 0.00 91 1012.0
20260906091630 76 248 0.0 0.0 0.00 0.00 0.00 91 1011.9
20260906091130 76 248 0.0 0.0 0.00 0.00 0.00 91 1011.9
20260906090630 76 248 0.0 0.0 0.00 0.00 0.00 91 1012.0
20260906090130 76 248 0.0 0.0 0.00 0.00 0.00 91 1011.9
20260906085630 76 248 0.0 0.0 0.00 0.00 0.00 91 1011.9
20260906085130 76 248 0.0 0.0 0.00 0.00 0.00 91 1011.9
20260906084630 76 248 0.0 0.0 0.00 0.00 0.00 91 1012.0
20260906084130 76 248 0.0 0.0 0.00 0.00 0.00 91 1012.0
20260906083630 76 248 0.0 0.0 0.00 0.00 0.00 91 1011.9
20260906083130 76 248 0.0 0.0 0.00 0.00 0.00 91 1011.9
20260906082630 76 248 0.0 0.0 0.00 0.00 0.00 91 1011.9
20260906082130 76 248 0.0 0.0 0.00 0.00 0.00 91 1011.8
20260906081630 76 248 0.0 1.7 0.00 0.00 0.00 91 1012.0
20260906081130 77 248 0.0 1.7 0.00 0.00 0.00 90 1012.0
20260906080630 77 248 0.0 0.0 0.00 0.00 0.00 90 1011.9
20260906080130 77 248 0.0 0.0 0.00 0.00 0.00 90 1011.9
20260906075630 77 248 0.0 1.7 0.00 0.00 0.00 90 1012.0
20260906075130 77 248 0.0 1.7 0.00 0.00 0.00 88 1011.9
20260906074630 78 248 0.0 0.0 0.00 0.00 0.00 88 1011.8
20260906074130 78 248 0.0 0.0 0.00 0.00 0.00 88 1011.8
20260906073630 78 248 0.0 0.0 0.00 0.00 0.00 88 1011.9
20260906073130 78 248 0.0 0.0 0.00 0.00 0.00 88 1011.8
20260906072630 78 248 0.0 0.0 0.00 0.00 0.00 88 1012.0
20260906072130 78 248 0.0 0.0 0.00 0.00 0.00 87 1011.9
20260906071630 78 248 0.0 0.0 0.00 0.00 0.00 87 1011.9
20260906071130 79 248 0.0 0.0 0.00 0.00 0.00 87 1011.9
20260906070630 79 248 0.0 0.0 0.00 0.00 0.00 86 1011.9
20260906070130 79 248 0.0 0.0 0.00 0.00 0.00 86 1012.1
20260906065630 79 248 0.0 0.0 0.00 0.00 0.00 86 1012.1
20260906065130 79 248 0.0 0.0 0.00 0.00 0.00 86 1012.1
20260906064630 79 248 0.0 0.0 0.00 0.00 0.00 86 1012.1
20260906064130 79 248 0.0 0.0 0.00 0.00 0.00 86 1012.2
20260906063630 79 248 0.0 0.0 0.00 0.00 0.00 85 1012.2
20260906063130 79 248 0.0 0.0 0.00 0.00 0.00 86 1012.3
20260906062630 79 248 0.0 0.0 0.00 0.00 0.00 85 1012.4
20260906062130 80 248 0.0 0.0 0.00 0.00 0.00 85 1012.4
20260906061630 80 249 0.0 0.0 0.00 0.00 0.00 85 1012.4
20260906061130 80 249 0.0 0.0 0.00 0.00 0.00 85 1012.4
20260906060630 80 249 0.0 0.9 0.00 0.00 0.00 85 1012.5
20260906060130 80 249 0.0 0.0 0.00 0.00 0.00 85 1012.6
20260906055630 80 249 0.0 0.0 0.00 0.00 0.00 85 1012.7
20260906055130 80 249 0.0 0.0 0.00 0.00 0.00 85 1012.7
20260906054630 80 249 0.0 0.0 0.00 0.00 0.00 84 1012.8
20260906054130 80 249 0.0 0.0 0.00 0.00 0.00 83 1012.9
20260906053630 80 249 0.0 0.0 0.00 0.00 0.00 83 1013.0
20260906053130 80 249 0.0 0.0 0.00 0.00 0.00 83 1012.9
20260906052630 80 249 0.0 0.0 0.00 0.00 0.00 83 1012.8
20260906052130 81 249 0.0 0.0 0.00 0.00 0.00 83 1012.8
20260906051630 81 249 0.0 0.0 0.00 0.00 0.00 83 1012.8
20260906051130 81 249 0.0 0.0 0.00 0.00 0.00 83 1012.9
20260906050630 81 249 0.0 0.0 0.00 0.00 0.00 82 1012.8
20260906050130 81 249 0.0 0.0 0.00 0.00 0.00 82 1012.8
20260906045630 81 249 0.0 0.0 0.00 0.00 0.00 82 1012.7
20260906045130 82 249 0.0 0.0 0.00 0.00 0.00 82 1012.5
20260906044630 82 249 0.0 0.0 0.00 0.00 0.00 82 1012.6
20260906044130 82 249 0.0 1.7 0.00 0.00 0.00 82 1012.6
20260906043630 82 249 0.0 0.9 0.00 0.00 0.00 82 1012.4
20260906043130 82 249 0.0 0.9 0.00 0.00 0.00 82 1012.4
20260906042630 82 249 0.0 1.7 0.00 0.00 0.00 82 1012.5
20260906042130 82 249 0.0 0.0 0.00 0.00 0.00 81 1012.5
20260906041630 82 249 0.0 0.9 0.00 0.00 0.00 81 1012.5
20260906041130 82 249 0.0 1.7 0.00 0.00 0.00 81 1012.4
20260906040630 83 245 0.9 1.7 0.00 0.00 0.00 81 1012.5
20260906040130 83 245 0.9 1.7 0.00 0.00 0.00 81 1012.4
20260906035630 83 245 0.9 2.6 0.00 0.00 0.00 80 1012.5
20260906035130 83 245 0.9 2.6 0.00 0.00 0.00 80 1012.5
20260906034630 83 244 0.9 2.6 0.00 0.00 0.00 80 1012.7
20260906034130 84 245 0.9 2.6 0.00 0.00 0.00 79 1012.7
20260906033630 84 245 0.9 3.5 0.00 0.00 0.00 79 1012.8
20260906033131 84 236 0.0 1.7 0.00 0.00 0.00 79 1012.8
20260906032630 84 236 0.0 0.9 0.00 0.00 0.00 78 1012.8
20260906032130 84 236 0.9 0.9 0.00 0.00 0.00 78 1012.8
20260906031630 84 236 0.9 1.7 0.00 0.00 0.00 77 1012.8
20260906031130 85 236 1.7 1.7 0.00 0.00 0.00 77 1012.8
20260906030630 85 236 1.7 2.6 0.00 0.00 0.00 77 1012.7
20260906030130 85 229 1.7 3.5 0.00 0.00 0.00 76 1012.7
20260906025630 85 229 2.6 3.5 0.00 0.00 0.00 76 1012.7
20260906025130 85 234 2.6 4.3 0.00 0.00 0.00 75 1012.6
20260906024630 86 231 2.6 3.5 0.00 0.00 0.00 75 1012.7
20260906024130 86 239 2.6 4.3 0.00 0.00 0.00 74 1012.6
20260906023630 86 235 2.6 4.3 0.00 0.00 0.00 74 1012.6
20260906023130 86 233 3.5 4.3 0.00 0.00 0.00 73 1012.6
20260906022630 87 232 2.6 6.1 0.00 0.00 0.00 73 1012.5
20260906022130 87 233 2.6 3.5 0.00 0.00 0.00 72 1012.5
20260906021630 87 226 2.6 4.3 0.00 0.00 0.00 72 1012.5
20260906021130 87 233 2.6 4.3 0.00 0.00 0.00 72 1012.5
20260906020630 87 226 3.5 5.2 0.00 0.00 0.00 71 1012.3
20260906020130 87 235 3.5 6.1 0.00 0.00 0.00 72 1012.3
20260906015630 86 245 3.5 6.1 0.00 0.00 0.00 72 1012.3
20260906015130 86 237 3.5 7.0 0.00 0.00 0.00 72 1012.0
20260906014630 86 190 3.5 6.1 0.00 0.00 0.00 71 1012.0
20260906014130 87 207 0.9 7.8 0.00 0.00 0.00 70 1011.9
20260906013630 88 92 0.0 1.7 0.00 0.00 0.00 64 1011.9
20260906013130 88 86 0.0 0.0 0.00 0.00 0.00 64 1011.7
20260906012630 89 86 0.0 0.0 0.00 0.00 0.00 64 1011.9
20260906012130 89 86 0.0 0.9 0.00 0.00 0.00 64 1011.8
20260906011630 89 86 0.0 0.0 0.00 0.00 0.00 65 1011.6
20260906011130 89 86 0.0 0.9 0.00 0.00 0.00 63 1011.4
20260906010630 90 86 0.0 1.7 0.00 0.00 0.00 63 1011.3
20260906010130 90 86 0.9 0.9 0.00 0.00 0.00 63 1011.3
20260906005630 91 85 0.0 1.7 0.00 0.00 0.00 64 1011.3
20260906005130 92 84 0.0 1.7 0.00 0.00 0.00 58 1011.2
20260906004630 92 84 0.0 1.7 0.00 0.00 0.00 57 1011.2
20260906004130 92 77 0.0 1.7 0.00 0.00 0.00 57 1011.2
20260906003630 93 77 0.0 0.9 0.00 0.00 0.00 56 1011.2
20260906003130 93 77 0.0 0.0 0.00 0.00 0.00 56 1011.2
20260906002630 93 77 0.0 0.9 0.00 0.00 0.00 55 1011.3
20260906002130 94 77 0.0 0.0 0.00 0.00 0.00 55 1011.3
20260906001630 95 77 0.0 0.0 0.00 0.00 0.00 57 1011.2
20260906001130 95 77 0.0 1.7 0.00 0.00 0.00 54 1011.2
20260906000630 96 76 0.0 1.7 0.00 0.00 0.00 52 1011.2
20260906000130 96 76 0.0 1.7 0.00 0.00 0.00 51 1011.1
20260905235630 96 100 0.0 0.9 0.00 0.00 0.00 51 1011.0
20260905235130 97 52 0.0 1.7 0.00 0.00 0.00 50 1011.1
20260905234630 97 46 0.0 0.0 0.00 0.00 0.00 50 1011.1
20260905234130 97 46 0.0 0.0 0.00 0.00 0.00 50 1011.1
20260905233630 97 46 0.0 0.9 0.00 0.00 0.00 49 1011.0
20260905233130 98 46 0.0 0.9 0.00 0.00 0.00 49 1011.0
20260905232630 98 46 0.0 0.9 0.00 0.00 0.00 48 1011.0
20260905232130 98 46 0.0 0.9 0.00 0.00 0.00 48 1010.9
20260905231630 98 46 0.9 2.6 0.00 0.00 0.00 49 1010.7
20260905231130 98 17 0.9 2.6 0.00 0.00 0.00 48 1010.7
20260905230630 99 144 0.9 3.5 0.00 0.00 0.00 48 1010.8
20260905230130 99 34 0.0 2.6 0.00 0.00 0.00 49 1010.8
20260905225630 99 54 0.9 1.7 0.00 0.00 0.00 48 1010.7
20260905225130 99 75 0.9 2.6 0.00 0.00 0.00 47 1010.6
20260905224630 100 54 0.9 2.6 0.00 0.00 0.00 47 1010.7
20260905224130 100 77 0.9 6.1 0.00 0.00 0.00 46 1010.7
20260905223630 100 78 0.9 2.6 0.00 0.00 0.00 45 1010.7
20260905223130 101 4 0.9 2.6 0.00 0.00 0.00 45 1010.8
20260905222630 101 4 1.7 2.6 0.00 0.00 0.00 45 1010.8
20260905222130 101 0 1.7 7.8 0.00 0.00 0.00 44 1010.8
20260905221630 102 89 0.9 4.3 0.00 0.00 0.00 45 1010.9
20260905221130 102 86 1.7 3.5 0.00 0.00 0.00 43 1011.0
20260905220630 102 220 1.7 2.6 0.00 0.00 0.00 43 1010.9
20260905220130 103 125 0.9 2.6 0.00 0.00 0.00 43 1011.1
20260905215630 103 64 1.7 2.6 0.00 0.00 0.00 44 1011.2
20260905215130 103 49 1.7 3.5 0.00 0.00 0.00 43 1011.3
20260905214630 103 16 0.9 3.5 0.00 0.00 0.00 42 1011.3
20260905214130 103 149 1.7 5.2 0.00 0.00 0.00 43 1011.3
20260905213630 103 75 1.7 6.1 0.00 0.00 0.00 43 1011.3
20260905213130 103 98 1.7 4.3 0.00 0.00 0.00 43 1011.4
20260905212630 102 103 2.6 4.3 0.00 0.00 0.00 44 1011.4
20260905212130 102 72 2.6 7.0 0.00 0.00 0.00 44 1011.4
20260905211630 103 61 2.6 5.2 0.00 0.00 0.00 43 1011.5
20260905211130 102 129 2.6 6.1 0.00 0.00 0.00 43 1011.5
20260905210630 103 65 1.7 7.0 0.00 0.00 0.00 44 1011.5
20260905210130 103 321 1.7 2.6 0.00 0.00 0.00 45 1011.5
20260905205630 102 221 2.6 7.0 0.00 0.00 0.00 45 1011.6
20260905205130 102 268 1.7 4.3 0.00 0.00 0.00 44 1011.4
20260905204630 102 77 1.7 3.5 0.00 0.00 0.00 44 1011.6
20260905204130 102 311 2.6 5.2 0.00 0.00 0.00 45 1011.6
20260905203630 102 173 3.5 7.8 0.00 0.00 0.00 44 1011.7
20260905203131 102 189 2.6 9.6 0.00 0.00 0.00 45 1011.7
20260905202630 103 359 1.7 4.3 0.00 0.00 0.00 45 1011.8
20260905202130 102 164 2.6 7.8 0.00 0.00 0.00 44 1011.9
20260905201631 102 179 3.5 9.6 0.00 0.00 0.00 44 1011.9
20260905201131 103 223 3.5 8.7 0.00 0.00 0.00 44 1011.9
20260905200631 103 131 2.6 6.1 0.00 0.00 0.00 44 1011.8
20260905200131 103 108 1.7 4.3 0.00 0.00 0.00 45 1011.9
20260905195631 102 125 2.6 7.0 0.00 0.00 0.00 45 1012.0
20260905195131 102 103 2.6 7.8 0.00 0.00 0.00 45 1012.0
20260905194631 102 348 1.7 4.3 0.00 0.00 0.00 44 1012.2
20260905194131 101 86 1.7 3.5 0.00 0.00 0.00 46 1012.3
20260905193631 101 151 1.7 3.5 0.00 0.00 0.00 46 1012.3
20260905193131 101 204 1.7 5.2 0.00 0.00 0.00 46 1012.5
20260905192631 102 224 2.6 7.8 0.00 0.00 0.00 46 1012.5
20260905192131 101 278 3.5 7.0 0.00 0.00 0.00 47 1012.6
20260905191631 101 140 3.5 7.8 0.00 0.00 0.00 48 1012.7
20260905191131 102 176 2.6 7.0 0.00 0.00 0.00 47 1012.7
20260905190631 102 212 2.6 4.3 0.00 0.00 0.00 47 1012.9
20260905190131 101 313 3.5 6.1 0.00 0.00 0.00 48 1013.1
20260905185631 101 145 3.5 7.0 0.00 0.00 0.00 48 1013.0
20260905185131 101 131 3.5 7.0 0.00 0.00 0.00 48 1013.2
20260905184631 100 217 3.5 7.8 0.00 0.00 0.00 49 1013.2
20260905184131 101 86 2.6 8.7 0.00 0.00 0.00 48 1013.2
20260905183631 101 88 2.6 6.1 0.00 0.00 0.00 48 1013.3
20260905183131 100 115 2.6 8.7 0.00 0.00 0.00 49 1013.4
20260905182631 100 247 2.6 7.8 0.00 0.00 0.00 49 1013.5
20260905182131 100 203 2.6 7.0 0.00 0.00 0.00 51 1013.6
20260905181631 100 65 3.5 7.0 0.00 0.00 0.00 49 1013.7
20260905181131 100 110 3.5 7.8 0.00 0.00 0.00 51 1013.6
20260905180631 100 161 2.6 7.0 0.00 0.00 0.00 50 1013.7
20260905180131 100 209 2.6 6.1 0.00 0.00 0.00 50 1013.8
20260905175631 100 70 2.6 4.3 0.00 0.00 0.00 52 1013.9
20260905175131 99 2 2.6 6.1 0.00 0.00 0.00 53 1013.8
20260905174631 99 162 2.6 5.2 0.00 0.00 0.00 52 1013.9
20260905174131 99 14 2.6 4.3 0.00 0.00 0.00 52 1014.0
20260905173631 99 127 2.6 7.8 0.00 0.00 0.00 51 1014.0
20260905173131 101 127 1.7 7.8 0.00 0.00 0.00 50 1014.1
20260905172631 101 162 0.9 2.6 0.00 0.00 0.00 53 1014.0
20260905172131 100 226 1.7 3.5 0.00 0.00 0.00 54 1014.0
20260905171631 99 307 1.7 2.6 0.00 0.00 0.00 54 1014.1
20260905171131 99 359 2.6 5.2 0.00 0.00 0.00 53 1014.2
20260905170631 98 150 3.5 5.2 0.00 0.00 0.00 56 1014.4
20260905170131 99 98 2.6 7.0 0.00 0.00 0.00 54 1014.5
20260905165631 99 181 1.7 3.5 0.00 0.00 0.00 56 1014.5
20260905165131 99 55 1.7 5.2 0.00 0.00 0.00 56 1014.6
20260905164631 99 106 1.7 4.3 0.00 0.00 0.00 56 1014.7
20260905164131 98 295 1.7 4.3 0.00 0.00 0.00 58 1014.7
20260905163631 98 27 1.7 4.3 0.00 0.00 0.00 59 1014.6
20260905163131 98 86 1.7 5.2 0.00 0.00 0.00 58 1014.8
20260905162631 98 0 1.7 2.6 0.00 0.00 0.00 59 1014.7
20260905162131 97 15 1.7 4.3 0.00 0.00 0.00 59 1014.6
20260905161631 97 28 1.7 3.5 0.00 0.00 0.00 59 1014.7
20260905161131 97 1 1.7 2.6 0.00 0.00 0.00 60 1014.9
20260905160631 97 32 1.7 4.3 0.00 0.00 0.00 61 1014.8
20260905160131 97 71 1.7 2.6 0.00 0.00 0.00 61 1014.8
20260905155631 96 49 1.7 6.1 0.00 0.00 0.00 62 1014.9
20260905155131 97 113 0.9 4.3 0.00 0.00 0.00 61 1015.0
20260905154631 96 64 0.9 3.5 0.00 0.00 0.00 63 1014.9
20260905154131 96 18 0.9 2.6 0.00 0.00 0.00 64 1014.8
20260905153631 96 20 0.9 1.7 0.00 0.00 0.00 64 1014.8
20260905153131 95 20 0.9 1.7 0.00 0.00 0.00 65 1014.9
20260905152631 94 20 0.9 1.7 0.00 0.00 0.00 65 1014.8
20260905152131 94 101 0.9 3.5 0.00 0.00 0.00 66 1014.8
20260905151631 93 357 0.9 2.6 0.00 0.00 0.00 67 1014.8
20260905151131 93 25 1.7 3.5 0.00 0.00 0.00 68 1014.9
20260905150631 92 105 0.9 3.5 0.00 0.00 0.00 68 1014.9